Location: Quedlinburg
(51.7921°N, 11.1414°E)
Time: 13:06:10
(UTC+02:00)

RS-15 - Pass Details

Date: 17 March 2026
Orbit: 1893 x 2152 km, 64.8° (Epoch: 22 April)

Event Time Altitude Azimuth Distance (km) Brightness Sun altitude
Rises 04:58:18 0° 319° (NW) 5,394 10.1 -14.1°
Reaches altitude 10° 05:01:34 10° 316° (NW) 4,422 9.6 -13.6°
Maximum altitude 05:12:48 64° 240° (WSW) 2,226 8.1 -12.0°
Drops below altitude 10° 05:24:32 10° 162° (SSE) 4,604 10.1 -10.2°
Sets 05:28:01 0° 160° (SSE) 5,626 10.6 -9.7°
